CW9803 Weather Reports


time (UTC)temp
C
wind
direction
speed
KPH
gust
KPH
rain 1hr
cm
rain 24hr
cm
rain mn
cm
humidity
%
barometer
mb
20260902163739 17 98 6.4 6.4 0.00 0.00 0.00 52 1007.7
20260902163233 17 130 3.2 3.2 0.00 0.00 0.00 53 1007.7
20260902162732 17 129 1.6 3.2 0.00 0.00 0.00 53 1007.5
20260902162227 17 83 1.6 3.2 0.00 0.00 0.00 50 1007.5
20260902161722 17 137 1.6 3.2 0.00 0.00 0.00 51 1007.4
20260902161218 17 141 1.6 3.2 0.00 0.00 0.00 50 1007.3
20260902160714 16 126 0.0 0.0 0.00 0.00 0.00 53 1007.4
20260902160208 16 134 0.0 0.0 0.00 0.00 0.00 55 1007.3
20260902155707 16 126 1.6 3.2 0.00 0.00 0.00 55 1007.2
20260902155205 16 103 1.6 1.6 0.00 0.00 0.00 55 1007.1
20260902154701 15 84 3.2 4.8 0.00 0.00 0.00 57 1007.4
20260902154200 15 95 3.2 3.2 0.00 0.00 0.00 58 1007.3
20260902153655 15 77 3.2 3.2 0.00 0.00 0.00 58 1007.1
20260902153150 15 129 0.0 1.6 0.00 0.00 0.00 58 1007.5
20260902152646 15 309 1.6 3.2 0.00 0.00 0.00 59 1007.3
20260902152141 15 356 3.2 3.2 0.00 0.00 0.00 59 1007.3
20260902151636 15 142 1.6 1.6 0.00 0.00 0.00 58 1007.4
20260902151131 15 162 1.6 1.6 0.00 0.00 0.00 59 1007.3
20260902150626 15 129 3.2 4.8 0.00 0.00 0.00 59 1007.4
20260902150121 14 318 4.8 4.8 0.00 0.00 0.00 60 1007.7
20260902145616 13 95 3.2 3.2 0.00 0.00 0.00 62 1007.9
20260902145115 13 187 0.0 0.0 0.00 0.00 0.00 67 1007.8
20260902144613 13 115 1.6 1.6 0.00 0.00 0.00 64 1007.2
20260902144112 12 136 0.0 0.0 0.00 0.00 0.00 66 1007.3
20260902143607 12 144 0.0 0.0 0.00 0.00 0.00 68 1007.3
20260902143103 12 353 1.6 3.2 0.00 0.00 0.00 70 1007.1
20260902142558 12 151 1.6 3.2 0.00 0.00 0.00 72 1007.0
20260902142054 12 137 0.0 0.0 0.00 0.00 0.00 72 1007.3
20260902141548 12 115 1.6 1.6 0.00 0.00 0.00 72 1007.3
20260902141043 12 150 1.6 1.6 0.00 0.00 0.00 71 1007.2
20260902140538 12 170 6.4 6.4 0.00 0.00 0.00 71 1007.4
20260902140034 12 153 1.6 1.6 0.00 0.00 0.00 72 1007.3
20260902135533 12 141 1.6 1.6 0.00 0.00 0.00 72 1007.1
20260902135028 12 125 0.0 0.0 0.00 0.00 0.00 71 1007.0
20260902134523 12 144 0.0 0.0 0.00 0.00 0.00 70 1007.3
20260902134018 12 144 0.0 0.0 0.00 0.00 0.00 70 1007.3
20260902133513 12 120 0.0 0.0 0.00 0.00 0.00 70 1007.3
20260902133012 12 94 1.6 1.6 0.00 0.00 0.00 69 1007.5
20260902132508 12 146 0.0 1.6 0.00 0.00 0.00 69 1007.7
20260902132003 12 103 1.6 1.6 0.00 0.00 0.00 69 1008.0
20260902131459 12 147 0.0 0.0 0.00 0.00 0.00 69 1007.9
20260902130958 12 236 3.2 3.2 0.00 0.00 0.00 70 1008.2
20260902130454 11 129 3.2 3.2 0.00 0.00 0.00 71 1007.7
20260902125949 11 150 3.2 3.2 0.00 0.00 0.00 72 1007.5
20260902125446 11 114 1.6 1.6 0.00 0.00 0.00 72 1007.7
20260902124941 12 141 0.0 1.6 0.00 0.00 0.00 71 1008.0
20260902124437 12 162 1.6 1.6 0.00 0.00 0.00 71 1007.9
20260902123932 12 147 0.0 0.0 0.00 0.00 0.00 70 1007.8
20260902123429 12 148 0.0 0.0 0.00 0.00 0.00 70 1007.5
20260902122926 12 125 0.0 0.0 0.00 0.00 0.00 70 1007.3
20260902122423 12 73 1.6 3.2 0.00 0.00 0.00 70 1007.3
20260902121918 12 99 1.6 1.6 0.00 0.00 0.00 69 1007.7
20260902121412 12 144 0.0 0.0 0.00 0.00 0.00 70 1007.8
20260902120908 12 153 0.0 0.0 0.00 0.00 0.00 69 1007.4
20260902120404 12 145 1.6 1.6 0.00 0.00 0.00 69 1007.4
20260902115904 12 173 3.2 3.2 0.00 0.00 0.00 69 1007.4
20260902115400 12 165 3.2 3.2 0.00 0.00 0.00 69 1007.2
20260902114856 12 146 0.0 0.0 0.00 0.00 0.00 69 1007.3
20260902114351 12 157 0.0 0.0 0.00 0.00 0.00 69 1006.8
20260902113846 12 141 0.0 0.0 0.00 0.00 0.00 68 1006.9
20260902113342 12 156 1.6 1.6 0.00 0.00 0.00 67 1006.9
20260902112841 12 140 0.0 1.6 0.00 0.00 0.00 67 1007.0
20260902112338 12 150 3.2 3.2 0.00 0.00 0.00 67 1007.1
20260902111833 12 153 1.6 1.6 0.00 0.00 0.00 67 1007.1
20260902111329 12 162 0.0 0.0 0.00 0.00 0.00 67 1007.3
20260902110824 12 142 0.0 1.6 0.00 0.00 0.00 67 1007.2
20260902110320 13 126 1.6 1.6 0.00 0.00 0.00 67 1007.7
20260902105820 13 150 3.2 3.2 0.00 0.00 0.00 66 1007.3
20260902105315 13 142 0.0 0.0 0.00 0.00 0.00 66 1007.1
20260902104810 13 142 0.0 0.0 0.00 0.00 0.00 66 1007.2
20260902104306 13 141 0.0 0.0 0.00 0.00 0.00 66 1007.3
20260902103806 13 156 1.6 3.2 0.00 0.00 0.00 65 1007.5
20260902103301 13 125 0.0 0.0 0.00 0.00 0.00 65 1007.0
20260902102756 13 137 0.0 0.0 0.00 0.00 0.00 65 1007.0
20260902102254 13 62 1.6 3.2 0.00 0.00 0.00 66 1007.1
20260902101749 13 135 0.0 0.0 0.00 0.00 0.00 65 1007.3
20260902101244 13 125 0.0 0.0 0.00 0.00 0.00 65 1007.1
20260902100743 13 145 0.0 0.0 0.00 0.00 0.00 65 1007.0
20260902100237 13 131 0.0 0.0 0.00 0.00 0.00 64 1007.0
20260902095731 13 115 0.0 0.0 0.00 0.00 0.00 63 1006.7
20260902095226 13 95 1.6 1.6 0.00 0.00 0.00 63 1006.9
20260902094721 13 109 1.6 3.2 0.00 0.00 0.00 64 1007.0
20260902094217 12 357 1.6 3.2 0.00 0.00 0.00 66 1007.0
20260902093715 12 112 1.6 1.6 0.00 0.00 0.00 66 1006.9
20260902093211 12 118 0.0 0.0 0.00 0.00 0.00 65 1006.8
20260902092706 12 132 0.0 0.0 0.00 0.00 0.00 65 1007.1
20260902092201 12 115 0.0 0.0 0.00 0.00 0.00 65 1007.0
20260902091655 12 133 0.0 0.0 0.00 0.00 0.00 65 1007.0
20260902091152 13 129 0.0 0.0 0.00 0.00 0.00 63 1006.9
20260902090647 13 148 0.0 0.0 0.00 0.00 0.00 62 1007.0
20260902090147 14 132 0.0 0.0 0.00 0.00 0.00 61 1007.0
20260902085641 15 115 0.0 0.0 0.00 0.00 0.00 59 1007.1
20260902085142 14 117 1.6 3.2 0.00 0.00 0.00 59 1007.3
20260902084638 15 116 0.0 0.0 0.00 0.00 0.00 58 1007.2
20260902084134 15 310 1.6 1.6 0.00 0.00 0.00 56 1007.2
20260902083628 16 281 4.8 6.4 0.00 0.00 0.00 56 1007.0
20260902083127 15 269 11.3 16.1 0.00 0.00 0.00 56 1006.9
20260902082623 15 222 6.4 11.3 0.00 0.00 0.00 57 1006.9
20260902082120 15 131 0.0 0.0 0.00 0.00 0.00 56 1006.9
20260902081616 15 113 0.0 1.6 0.00 0.00 0.00 55 1006.9
20260902081116 16 149 1.6 1.6 0.00 0.00 0.00 55 1006.9
20260902080611 16 240 4.8 4.8 0.00 0.00 0.00 54 1006.8
20260902080108 16 209 4.8 6.4 0.00 0.00 0.00 54 1006.8
20260902075607 16 306 12.9 16.1 0.00 0.00 0.00 54 1007.0
20260902075103 16 250 9.7 11.3 0.00 0.00 0.00 52 1006.9
20260902074559 17 186 3.2 3.2 0.00 0.00 0.00 51 1007.0
20260902074054 16 209 4.8 4.8 0.00 0.00 0.00 52 1006.9
20260902073549 15 138 0.0 1.6 0.00 0.00 0.00 53 1006.9
20260902073046 14 153 1.6 1.6 0.00 0.00 0.00 54 1006.8
20260902072541 13 147 0.0 0.0 0.00 0.00 0.00 59 1006.9
20260902072038 13 151 0.0 0.0 0.00 0.00 0.00 58 1006.4
20260902071537 14 151 0.0 0.0 0.00 0.00 0.00 58 1006.6
20260902071034 14 102 0.0 0.0 0.00 0.00 0.00 58 1006.6
20260902070529 15 132 0.0 0.0 0.00 0.00 0.00 56 1006.2
20260902070023 15 141 0.0 0.0 0.00 0.00 0.00 55 1006.5
20260902065517 15 145 0.0 0.0 0.00 0.00 0.00 54 1006.6
20260902065013 15 169 0.0 0.0 0.00 0.00 0.00 54 1006.6
20260902064509 15 142 0.0 0.0 0.00 0.00 0.00 54 1006.4
20260902064004 15 140 1.6 1.6 0.00 0.00 0.00 55 1006.6
20260902063503 16 136 0.0 0.0 0.00 0.00 0.00 52 1006.6
20260902062958 16 120 0.0 0.0 0.00 0.00 0.00 52 1006.8
20260902062457 16 141 3.2 3.2 0.00 0.00 0.00 47 1006.7
20260902061952 16 148 0.0 1.6 0.00 0.00 0.00 55 1006.6
20260902061442 15 102 0.0 1.6 0.00 0.00 0.00 59 1006.2
20260902060938 15 137 0.0 0.0 0.00 0.00 0.00 59 1006.6
20260902060434 15 148 0.0 0.0 0.00 0.00 0.00 59 1006.6
20260902055930 15 133 0.0 0.0 0.00 0.00 0.00 59 1006.4
20260902055426 15 95 1.6 1.6 0.00 0.00 0.00 58 1006.4
20260902054921 15 145 0.0 0.0 0.00 0.00 0.00 58 1006.1
20260902054416 15 170 0.0 1.6 0.00 0.00 0.00 58 1006.0
20260902053911 15 162 0.0 0.0 0.00 0.00 0.00 57 1006.2
20260902053407 16 133 0.0 0.0 0.00 0.00 0.00 56 1006.2
20260902052905 16 108 1.6 1.6 0.00 0.00 0.00 55 1006.2
20260902052401 17 94 0.0 1.6 0.00 0.00 0.00 50 1006.0
20260902051855 19 154 3.2 3.2 0.00 0.00 0.00 43 1006.2
20260902051350 17 213 6.4 6.4 0.00 0.00 0.00 48 1006.1
20260902050849 16 85 1.6 1.6 0.00 0.00 0.00 55 1006.4
20260902050348 16 153 0.0 0.0 0.00 0.00 0.00 56 1006.0
20260902045843 16 184 3.2 4.8 0.00 0.00 0.00 55 1006.1
20260902045334 16 170 3.2 3.2 0.00 0.00 0.00 56 1005.7
20260902044831 16 151 1.6 1.6 0.00 0.00 0.00 57 1005.8
20260902044326 16 125 0.0 0.0 0.00 0.00 0.00 57 1005.6
20260902043827 16 147 0.0 0.0 0.00 0.00 0.00 57 1005.7
20260902043321 16 147 0.0 0.0 0.00 0.00 0.00 57 1005.5
20260902042820 16 147 0.0 0.0 0.00 0.00 0.00 56 1005.7
20260902042315 16 149 0.0 0.0 0.00 0.00 0.00 55 1005.5
20260902041810 17 149 0.0 0.0 0.00 0.00 0.00 56 1005.5
20260902041311 17 149 0.0 0.0 0.00 0.00 0.00 52 1005.4
20260902040809 17 151 1.6 1.6 0.00 0.00 0.00 51 1005.1
20260902040306 18 146 0.0 0.0 0.00 0.00 0.00 50 1005.2
20260902035804 18 159 0.0 0.0 0.00 0.00 0.00 51 1005.2
20260902035300 18 151 0.0 0.0 0.00 0.00 0.00 50 1005.1
20260902034758 19 152 0.0 0.0 0.00 0.00 0.00 49 1005.3
20260902034254 20 139 0.0 0.0 0.00 0.00 0.00 46 1004.9
20260902033751 20 128 0.0 0.0 0.00 0.00 0.00 45 1004.7
20260902033247 20 114 0.0 0.0 0.00 0.00 0.00 45 1004.8
20260902032745 20 140 0.0 0.0 0.00 0.00 0.00 46 1004.7
20260902032241 20 141 0.0 0.0 0.00 0.00 0.00 46 1004.5
20260902031740 20 131 0.0 0.0 0.00 0.00 0.00 46 1004.3
20260902031236 20 144 3.2 3.2 0.00 0.00 0.00 45 1004.3
20260902030731 21 148 1.6 1.6 0.00 0.00 0.00 44 1004.3
20260902030225 21 131 0.0 0.0 0.00 0.00 0.00 43 1004.1
20260902025724 22 128 0.0 0.0 0.00 0.00 0.00 41 1004.0
20260902025220 22 334 6.4 9.7 0.00 0.00 0.00 40 1004.0
20260902024715 22 235 3.2 3.2 0.00 0.00 0.00 41 1003.9
20260902024211 22 123 0.0 1.6 0.00 0.00 0.00 40 1003.9
20260902023706 22 44 4.8 4.8 0.00 0.00 0.00 40 1003.8
20260902023201 22 74 3.2 3.2 0.00 0.00 0.00 39 1003.5
20260902022700 23 149 1.6 3.2 0.00 0.00 0.00 39 1003.8
20260902022156 23 279 6.4 11.3 0.00 0.00 0.00 39 1003.3
20260902021652 23 227 8.0 9.7 0.00 0.00 0.00 37 1003.4
20260902021146 23 244 9.7 12.9 0.00 0.00 0.00 37 1003.7
20260902020643 24 274 11.3 14.5 0.00 0.00 0.00 37 1003.4
20260902020138 25 210 8.0 9.7 0.00 0.00 0.00 35 1003.3
20260902015633 25 221 3.2 3.2 0.00 0.00 0.00 33 1003.4
20260902015130 25 258 11.3 12.9 0.00 0.00 0.00 33 1003.3
20260902014625 25 184 3.2 3.2 0.00 0.00 0.00 32 1003.3
20260902014121 25 149 0.0 0.0 0.00 0.00 0.00 32 1003.3
20260902013620 25 131 0.0 0.0 0.00 0.00 0.00 32 1003.4
20260902013116 25 131 0.0 0.0 0.00 0.00 0.00 31 1003.4
20260902012611 26 158 1.6 3.2 0.00 0.00 0.00 31 1003.4
20260902012106 26 158 0.0 1.6 0.00 0.00 0.00 31 1003.7
20260902011602 26 146 6.4 6.4 0.00 0.00 0.00 30 1003.5
20260902011101 26 173 4.8 4.8 0.00 0.00 0.00 30 1003.7
20260902010600 26 163 4.8 6.4 0.00 0.00 0.00 30 1003.3
20260902010057 26 165 3.2 3.2 0.00 0.00 0.00 30 1003.8
20260902005554 26 158 8.0 12.9 0.00 0.00 0.00 30 1003.5
20260902005051 26 176 4.8 9.7 0.00 0.00 0.00 29 1003.4
20260902004549 26 186 8.0 11.3 0.00 0.00 0.00 29 1003.2
20260902004045 27 177 24.1 25.7 0.00 0.00 0.00 29 1003.4
20260902003540 27 169 8.0 11.3 0.00 0.00 0.00 30 1003.4
20260902003036 27 172 3.2 4.8 0.00 0.00 0.00 30 1003.5
20260902002531 27 148 11.3 12.9 0.00 0.00 0.00 30 1003.3
20260902002020 27 134 9.7 16.1 0.00 0.00 0.00 30 1003.5
20260902001515 27 185 17.7 22.5 0.00 0.00 0.00 30 1003.5
20260902001010 27 198 12.9 14.5 0.00 0.00 0.00 30 1003.4
20260902000505 27 169 16.1 20.9 0.00 0.00 0.00 30 1003.9
20260902000000 27 168 12.9 16.1 0.00 0.00 0.00 29 1003.8
20260901235454 27 163 12.9 16.1 0.00 0.00 0.00 30 1003.9
20260901234950 27 140 14.5 27.4 0.00 0.00 0.00 30 1003.9
20260901234444 27 177 8.0 9.7 0.00 0.00 0.00 30 1004.0
20260901233939 27 179 12.9 20.9 0.00 0.00 0.00 30 1004.0
20260901233434 27 147 4.8 4.8 0.00 0.00 0.00 30 1004.1
20260901232930 27 163 12.9 16.1 0.00 0.00 0.00 30 1004.2
20260901232430 27 209 9.7 12.9 0.00 0.00 0.00 30 1004.3
20260901231925 27 192 3.2 4.8 0.00 0.00 0.00 31 1004.0
20260901231422 27 186 9.7 11.3 0.00 0.00 0.00 31 1004.3
20260901230918 27 190 16.1 24.1 0.00 0.00 0.00 31 1004.2
20260901230417 27 151 12.9 22.5 0.00 0.00 0.00 33 1004.3
20260901225913 27 145 6.4 9.7 0.00 0.00 0.00 33 1004.4
20260901225407 27 194 17.7 24.1 0.00 0.00 0.00 34 1004.5
20260901224902 27 182 8.0 11.3 0.00 0.00 0.00 34 1004.5
20260901224358 28 170 6.4 9.7 0.00 0.00 0.00 34 1004.9
20260901223854 27 191 4.8 4.8 0.00 0.00 0.00 36 1004.8
20260901223349 27 148 1.6 3.2 0.00 0.00 0.00 36 1005.1
20260901222845 26 175 3.2 4.8 0.00 0.00 0.00 37 1005.1
20260901222342 26 142 1.6 1.6 0.00 0.00 0.00 37 1005.2
20260901221837 27 168 11.3 14.5 0.00 0.00 0.00 37 1005.3
20260901221332 26 155 8.0 11.3 0.00 0.00 0.00 37 1005.4
20260901220832 25 157 3.2 3.2 0.00 0.00 0.00 39 1005.5
20260901220331 25 166 3.2 4.8 0.00 0.00 0.00 39 1005.3
20260901215830 25 167 6.4 6.4 0.00 0.00 0.00 39 1005.5
20260901215329 25 146 4.8 6.4 0.00 0.00 0.00 38 1005.6
20260901214828 25 148 9.7 12.9 0.00 0.00 0.00 39 1005.6
20260901214327 25 156 3.2 6.4 0.00 0.00 0.00 39 1005.6
20260901213822 25 177 6.4 12.9 0.00 0.00 0.00 38 1005.6
20260901213322 25 209 12.9 17.7 0.00 0.00 0.00 40 1005.7
20260901212816 25 176 6.4 11.3 0.00 0.00 0.00 40 1005.8
20260901212312 25 181 4.8 6.4 0.00 0.00 0.00 39 1005.8
20260901211808 25 219 4.8 4.8 0.00 0.00 0.00 39 1005.7
20260901211304 25 150 3.2 4.8 0.00 0.00 0.00 38 1006.0
20260901210759 25 150 3.2 4.8 0.00 0.00 0.00 38 1006.0
20260901210255 25 181 6.4 11.3 0.00 0.00 0.00 38 1005.9
20260901205751 25 188 3.2 4.8 0.00 0.00 0.00 38 1006.1
20260901205250 25 154 6.4 11.3 0.00 0.00 0.00 38 1006.0
20260901204745 25 140 1.6 1.6 0.00 0.00 0.00 37 1006.1
20260901204236 26 152 1.6 3.2 0.00 0.00 0.00 37 1006.4
20260901203731 26 175 6.4 6.4 0.00 0.00 0.00 37 1006.4
20260901203231 26 149 0.0 0.0 0.00 0.00 0.00 37 1006.4
20260901202730 26 143 4.8 4.8 0.00 0.00 0.00 38 1006.5
20260901202226 26 181 4.8 4.8 0.00 0.00 0.00 36 1006.4
20260901201721 26 136 1.6 1.6 0.00 0.00 0.00 37 1006.4
20260901201220 26 165 8.0 11.3 0.00 0.00 0.00 35 1006.5
20260901200714 26 125 4.8 4.8 0.00 0.00 0.00 37 1006.5
20260901200210 25 188 4.8 4.8 0.00 0.00 0.00 38 1006.5
20260901195707 25 178 4.8 6.4 0.00 0.00 0.00 39 1006.6
20260901195201 25 144 1.6 3.2 0.00 0.00 0.00 40 1006.8
20260901194658 24 159 6.4 6.4 0.00 0.00 0.00 40 1006.6
20260901194147 23 146 0.0 1.6 0.00 0.00 0.00 42 1006.8
20260901193642 23 139 6.4 6.4 0.00 0.00 0.00 41 1006.8
20260901193137 23 189 11.3 12.9 0.00 0.00 0.00 42 1007.0
20260901192631 23 145 6.4 9.7 0.00 0.00 0.00 42 1007.2
20260901192126 23 214 4.8 9.7 0.00 0.00 0.00 43 1007.3
20260901191623 22 153 3.2 6.4 0.00 0.00 0.00 44 1007.4
20260901191119 22 196 3.2 4.8 0.00 0.00 0.00 44 1007.7
20260901190614 22 164 0.0 0.0 0.00 0.00 0.00 44 1007.7
20260901190114 22 147 4.8 6.4 0.00 0.00 0.00 44 1007.5
20260901185612 22 133 6.4 11.3 0.00 0.00 0.00 43 1007.4
20260901185111 22 147 1.6 3.2 0.00 0.00 0.00 43 1007.5
20260901184606 22 179 3.2 4.8 0.00 0.00 0.00 42 1007.5
20260901184101 22 129 4.8 9.7 0.00 0.00 0.00 42 1007.9
20260901183556 22 156 6.4 11.3 0.00 0.00 0.00 41 1008.0
20260901183052 22 190 14.5 24.1 0.00 0.00 0.00 41 1007.8
20260901182548 19 163 4.8 6.4 0.00 0.00 0.00 44 1007.9
20260901182048 18 122 0.0 1.6 0.00 0.00 0.00 42 1008.0
20260901181547 18 144 0.0 0.0 0.00 0.00 0.00 42 1007.8
20260901181046 18 151 0.0 0.0 0.00 0.00 0.00 43 1008.0
20260901180545 18 141 0.0 0.0 0.00 0.00 0.00 44 1007.7
20260901180040 17 121 0.0 0.0 0.00 0.00 0.00 42 1007.3
20260901175539 17 124 0.0 0.0 0.00 0.00 0.00 42 1007.4
20260901175034 17 96 0.0 1.6 0.00 0.00 0.00 42 1007.3
20260901174530 17 141 1.6 1.6 0.00 0.00 0.00 42 1007.4
20260901174026 17 261 6.4 6.4 0.00 0.00 0.00 43 1007.2
20260901173526 17 164 0.0 1.6 0.00 0.00 0.00 43 1007.0
20260901173022 17 91 0.0 1.6 0.00 0.00 0.00 46 1006.9
20260901172517 17 98 1.6 1.6 0.00 0.00 0.00 46 1007.3
20260901172015 17 74 4.8 4.8 0.00 0.00 0.00 42 1007.1
20260901171515 17 139 0.0 0.0 0.00 0.00 0.00 42 1007.0
20260901171014 16 135 0.0 0.0 0.00 0.00 0.00 43 1007.2
20260901170508 16 143 0.0 0.0 0.00 0.00 0.00 43 1007.3
20260901170009 16 203 3.2 3.2 0.00 0.00 0.00 44 1007.1
20260901165503 16 116 1.6 1.6 0.00 0.00 0.00 41 1006.6
20260901164958 16 134 0.0 0.0 0.00 0.00 0.00 43 1006.6
20260901164454 16 130 0.0 0.0 0.00 0.00 0.00 44 1006.6